Погода Нижний Новгород

Погода Нижний Новгород : погода сейчас, прогноз погоды и архив. Всё, что Вы хотите узнать о погоде Нижний Новгород!

Хотите узнать прогноз погоды в Нижнем Новгороде? Тогда Вам сюда: Погода в Нижнем Новгороде

Поиск расширенной информации на нашем сайте:

Другие новости

Новости СМИ2

Главная страница сайта

Новости сайта

02.10.2013

Напоминаем, что на нашем новом сайте вы можете получить высокодетализированные прогнозы погоды по пунктам России, СНГ и мира (включающие важные для авиации метеовеличины, такие как направление и скорость ветра, видимость, явления погоды, количество и форма облачности, нижняя и верхняя граница облачности), а также ознакомиться с разнообразными материалами по авиационной метеорологии и подборкой полезных ссылок на эту тему.

Сайт Метеоцентр.Азия посвящён разработке технологий оптимизации авиаметеорологического обслуживания, включая проектирование и перспективное создание нескольких автоматизированных авиаметеорологических систем:
- система выпуска высокодетальных прогностических карт явлений погоды для нижнего воздушного пространства по России и ближнему зарубежью;
- система верификации прогнозов TAF (выпускаемых синоптиками официальных АМСГ РФ и ближнего зарубежья) и AUTOTAF (выпускаемых сайтом Метеоцентр.Азия) - выявление ошибок, онлайн-сопоставление с фактической погодой METAR, автоматическое внесение коррективов в прогнозы при резком отклонении фактической погоды от прогноза, подсчёт оправдываемости прогнозов по элементам и в целом;
- система обработки, анализа и отображения авиаметеорологической информации для применения провайдерами метеорологической информации.

Рекомендуем: Пуллер макси для собак: puller maxi игрушка для собак пуллер макси.

Погода Нижний Новгород - сегодня

Время (UTC), дата Ветер
(°,м/с) 
Видим.   Явления Облачность Т
(°С)
Тd
(°С)
f(%) Тe
(°С)
Pmin
(гПа)
dP
(гПа)
Po
(мм)
O2
(г/м3)
Тmin Tmax R s Состояние
почвы
06 18.02.17 220 (ЮЗ) 2-5{06}  10 км  слаб. снег  10/10 300 м 
[Frnb]
-4.5 -5.4 93 -6  1005.9  -0.8  740  304           
09 18.02.17 240 (ЮЗ) 3-6{06}  4000 м  слаб. снег  10/10 300 м 
[Frnb|Ns]
-2.7 -4 91 -5  1004.9  -0.8  739  301           
12 18.02.17 260 (З) 2-6{06}  10 км  в посл. час снег  10/10 300 м 
[Frnb]
-0.4 -1.9 90 -1  1004  -0.8  738  298           
15 18.02.17 270 (З) 3-6{07}  10 км  слаб. снег  10/10 300 м 
[Frnb]
+0.5 -0.3 94 -1  1003.6  -0.3  738  297    +0.5     
18 18.02.17 250 (З) 3-6{09}  10 км  {снег}  10/10 300 м 
[Sc]
+0.6 -1.1 88 -1  1002.9  -0.7  738  297           
21 18.02.17 270 (З) 3-8{10}  10 км    10/10 300 м 
[Sc]
+0 -4.1 74 -2  1002.4  -0.6  737  297           
00 19.02.17 270 (З) 3-10{10}  10 км  слаб. снег  10/10 300 м 
[Frnb]
+0 -3 80 -2  1001.9  -0.4  737  297           
03 19.02.17 300 (СЗ) 3-7{10}  10 км  в посл. час снег{ливн. осадки}  3/0 средняя 
[Ac trans]
-1.6 -3.6 86 -4  1004.9  2.8  739  300  -1.6    60  равномерный
сухой снег
100% 
06 19.02.17 310 (СЗ) 3-6{08}  10 км  {ливн. осадки, снег}  6/0 средняя 
[Ac trans]
-2.2 -6.5 72 -4  1008.6  3.6  742  302  -2.2         
09 19.02.17 290 (З) 2-4{09}  10 км    6/0 средняя, верхняя 
[Ac trans|Ci fib]
-0.7 -8.8 54 -2  1010.8  2.3  743  301           
12 19.02.17 250 (З) 2-5{07}  10 км    10/0 верхняя 
[Cs]
-0.7 -8.8 54 -2  1010.7  -0.1  743  301           
15 19.02.17 180 (Ю) 2-4{05}  4000 м  слаб. снег  10/10 300 м 
[St]
-1.8 -3.9 86 -3  1008.5  -2.3  742  301    -0.4  0.4     
18 19.02.17 230 (ЮЗ) 2-5{09}  10 км  {снег}  8/8 300 м 
[St]
+0.3 -2.6 81 1005.1  -3.2  739  298           
21 19.02.17 240 (ЮЗ) 3-7{08}  10 км    10/10 300 м 
[St]
+0 -2 86 -2  1002.4  -2.7  737  297           
00 20.02.17 240 (ЮЗ) 4-8{10}  4000 м  слаб. снег  10/10 300 м 
[St]
+0.2 -1.8 86 -2  1000.8  -1.5  736  296           
03 20.02.17 240 (ЮЗ) 3-6{10}  10 км  {снег}  10/10 300 м 
[St]
+0.6 -1.3 87 -1  999.5  -1.1  735  296  -2    58  равномерный
сухой снег
100% 
06 20.02.17 230 (ЮЗ) 2-7{10}  4000 м  слаб. снег  10/10 300 м 
[St]
+0.8 -1.3 86 998.7  -0.8  735  295           
09 20.02.17 230 (ЮЗ) 3-8{11}  10 км  слаб. морось{снег}  10/10 300 м 
[St]
+1.5 -1 83 997.8  -0.9  734  294           
12 20.02.17 230 (ЮЗ) 2-12{12}  10 км  {снег, морось}  10/10 300 м 
[St]
+2.3 -1 79 +2  997.4  -0.4  734  293           
15 20.02.17 230 (ЮЗ) 2-10{12}  10 км  слаб. дождь{морось}  10/10 300 м 
[Frnb|Ns]
+1.7 -0.2 87 +1  997.1  -0.3  733  294    +2.5  0.5     
18 20.02.17 230 (ЮЗ) 2-7{10}  10 км  слаб. дождь{морось}  10/10 300 м 
[Frnb|Ns]
+1.6 +0.2 90 +1  996.5  -0.5  733  294           
21 20.02.17 230 (ЮЗ) 2-7{11}  10 км  слаб. снег{дождь}  10/10 300 м 
[Frnb|Ns]
+1 +0.2 94 995.2  -1.3  732  294           
00 21.02.17 230 (ЮЗ) 2-7{10}  4000 м  слаб. снег{дождь}  10/10 300 м 
[Frnb|Ns]
+0.7 -0.4 92 994.1  -1.2  731  294           
03 21.02.17 230 (ЮЗ) 3-7{10}  2000 м  снег [диам. отлож. мокр. снега 3 мм]  10/10 200 м 
[Frnb|Ns]
+0.2 -0.4 96 -2  992.2  -1.9  730  294  +0.2    56  равномерный
мокрый или
старый снег
100% 
06 21.02.17 230 (ЮЗ) 2-10{11}  2000 м  снег [диам. отлож. мокр. снега 4 мм]  10/10 200 м 
[Frnb|Ns]
+0 +0 100 -1  990.2  -1.9  728  293  +0         
Время (UTC), дата Ветер
(°,м/с) 
Видим.   Явления Облачность Т
(°С)
Тd
(°С)
f(%) Тe
(°С)
Pmin
(гПа)
dP
(гПа)
Po
(мм)
O2
(г/м3)
Тmin Tmax R s Состояние
почвы

Для получения пояснительной информации подведите курсор к названию столбца.

ПОГОДА Нижний Новгород - архив

Всё, что Вы хотите узнать о погоде Нижний Новгород - удобно и подробно!

Выберите нужную дату (начиная с 1 января 2015* года) и нажмите кнопку "Найти".
Будут отображены архивные сводки погоды по пункту Нижний Новгород, начиная с указанной даты.


Отображать данные в формате CSV (для использования в таблицах Excel)


Внимание! Наш архив погоды предназначен исключительно для личного некоммерческого использования в познавательных целях. Если Вам необходимы официальные справки о состоянии погоды (для производственных, юридических, коммерческих и т.п. целей), обращайтесь в органы Росгидромета.

*Примечание: данная дата относится к архиву по метеостанциям СССР (Россия, СНГ, Балтия).
Архив по метеостанциям Зарубежной Европы и Азии (кроме Китая) хранится 10 дней, по другим регионам земного шара (Китай, Африка, Америка, Австралия, Океания) - 1 день.

Нижний Новгород - район местоположения метеостанции


Название, широта, долгота, высота метеостанции:
Нижний Новгород (Мыза) 56.3°ш. 44°д. 157 м над ур. моря [Российская Федерация]

Дополнительная информация

В oтличие oт бoльшинства пoгoдных сайтoв мы публикуем пoдрoбную метеoинфoрмацию в детальнoм прoфессиoнальнoм фoрмате.

Характеристики температуры и влажнoсти вoздуха измеряются на высoте 2 м в тени вдали oт зданий и деревьев.
Скoрoсть ветра измеряется на высoте 10 м (на урoвне рoста челoвека скoрoсть ветра ниже в 1.5-2 раза). Если метеoстанция нахoдится в гoрoде или в лесу, тo скoрoсть ветра занижена на 2-4 м/с пo сравнению с oткрытым местoм. Скoрoсть ветра над акватoриями крупных рек и oзёр, а также на вершинах хoлмoв на 2-5 м/с выше, чем в oбычных услoвиях.
Атмoсфернoе давление в разных тoчках местнoсти мoжет значительнo oтличаться oт давления на метеoстанции, в зависимoсти oт услoвий рельефа (при пoдъёме на 10 м давление пoнижается примернo на 1 мм рт.ст.).